SPROUT (39770 NORAD) Tracking and Keplerian Element Data

This shows tracking and keplerian element data for the satellite.

Feedback or suggestion? Click here.




ElementValue
Catalog39770
NameSPROUT
Epoch Orbit24294
Epoch Day320.13722511
Epoch Year2018
RAAN59.9849
Inclination97.882
Eccentricity0.0010198
Argument of Perigee71.9477
Mean Anonmoly288.2837
Mean Motion14.87059881
Decay Rate8.99E-06
L11 39770U 14029E 18320.13722511 .00000899 00000-0 10631-3 0 9998
L22 39770 97.8820 59.9849 0010198 71.9477 288.2837 14.87059881242940

Live tracking and technical data element details for SPROUT (NORAD 39770). SPROUT can be tracked NOW for your location showing map with azimuth and elevation plus other details from your city location.

Track the satellite on the map from your city or location and see movement details for azimuth, elevation, latitude, longitude, range, height, and movement on the map or in text.







IsCatalogInMostPopularTable: catalog: 39770, numindb: 113
Update: records affected: 1



GetName: 39770 SPROUT

Hit Count: updated at: Fri, 16 Nov 2018 12:15:41 GMT